Location: Poughquag
(41.6090°N, 73.6820°W)
Time: 02:27:57
(UTC-04:00)

Vanguard 1 - Pass Details

Date: 01 June 2020
Orbit: 650 x 3833 km, 34.2° (Epoch: 06 July)

Event Time Altitude Azimuth Distance (km) Brightness Sun altitude
Rises 13:17:47 0° 285° (WNW) 7,949 14.7 69.9°
Reaches altitude 10° 13:24:29 10° 276° (W) 6,934 14.6 69.5°
Maximum altitude 13:41:30 28° 228° (SW) 4,954 14.5 68.0°
Drops below altitude 10° 13:54:39 10° 177° (S) 5,266 14.2 66.6°
Sets 13:58:54 0° 165° (SSE) 5,827 14.2 66.1°
